Tracking 19570 objects as of 21-Feb-2019
HD Live streaming from Space Station
objects crossing your sky now

COSMOS 1348

Track COSMOS 1348 now!
COSMOS 1348 is classified as:


NORAD ID: 13124
Int'l Code: 1982-029A
Perigee: 8,277.4 km
Apogee: 32,130.3 km
Inclination: 71.9 °
Period: 718.6 minutes
Semi major axis: 26574 km
RCS: 16.1516 m2 (large)
Launch date: April 7, 1982
Source: Commonwealth of Independent States (former USSR) (CIS)
Launch site: PLESETSK MISSILE AND SPACE COMPLEX (PKMTR)
aabbcc
Your satellite tracking list
Your tracking list is empty




NASA's NSSDC Master Catalog

Two Line Element Set (TLE):
1 13124U 82029A   19051.86062668 +.00000125 +00000-0 +00000-0 0  9998
2 13124 071.8698 243.6548 4487884 051.0614 076.3265 02.00399744269839
Source of the keplerian elements: AFSPC